• In Uzbekistan
  • List of Countries
  • For 7 days
  • Water Temperature
  • Satellite Maps
  • Weather Map
  • Weather Widgets
  • user-avatar
    Login

    Hourly Weather Zalaegerszeg

    Today, 25 June, Monday

    Time Temperature Precipitation Wind Pressure Humidity
    00:00 +14°C° 0 mm 1 mps 749 mmHg 77%
    01:00 +14°C° 0 mm 1 mps 750 mmHg 77%
    02:00 +14°C° 0.1 mm 1 mps 750 mmHg 80%
    03:00 +13°C° 0.1 mm 1 mps 749 mmHg 83%
    04:00 +13°C° 0.1 mm 2 mps 749 mmHg 85%
    05:00 +13°C° 0.4 mm 2 mps 750 mmHg 85%
    06:00 +13°C° 0.4 mm 3 mps 750 mmHg 85%
    07:00 +13°C° 0.4 mm 3 mps 750 mmHg 85%
    08:00 +13°C° 0.4 mm 3 mps 750 mmHg 85%
    09:00 +14°C° 0.4 mm 3 mps 750 mmHg 85%
    10:00 +14°C° 0.4 mm 3 mps 750 mmHg 85%
    11:00 +17°C° 0 mm 3 mps 750 mmHg 76%
    12:00 +18°C° 0 mm 2 mps 750 mmHg 68%
    13:00 +20°C° 0 mm 2 mps 750 mmHg 60%
    14:00 +21°C° 0 mm 2 mps 750 mmHg 57%
    15:00 +21°C° 0 mm 2 mps 750 mmHg 55%
    16:00 +23°C° 0 mm 2 mps 749 mmHg 53%
    17:00 +21°C° 0 mm 2 mps 750 mmHg 59%
    18:00 +21°C° 0 mm 1 mps 750 mmHg 65%
    19:00 +20°C° 0 mm 1 mps 750 mmHg 70%
    20:00 +18°C° 0 mm 1 mps 750 mmHg 74%
    21:00 +16°C° 0 mm 1 mps 750 mmHg 77%
    22:00 +15°C° 0 mm 1 mps 751 mmHg 81%
    23:00 +15°C° 0 mm 1 mps 751 mmHg 82%

    Tomorrow, 26 June, Tuesday

    Time Temperature Precipitation Wind Pressure Humidity
    00:00 +14°C° 0 mm 2 mps 751 mmHg 84%
    01:00 +14°C° 0 mm 2 mps 751 mmHg 85%
    02:00 +14°C° 0 mm 2 mps 751 mmHg 87%
    03:00 +13°C° 0 mm 2 mps 751 mmHg 89%
    04:00 +13°C° 0 mm 2 mps 750 mmHg 91%
    05:00 +13°C° 0 mm 3 mps 751 mmHg 85%
    06:00 +16°C° 0 mm 3 mps 751 mmHg 79%
    07:00 +18°C° 0 mm 4 mps 751 mmHg 72%
    08:00 +19°C° 0 mm 4 mps 751 mmHg 66%
    09:00 +21°C° 0 mm 5 mps 751 mmHg 60%
    10:00 +22°C° 0 mm 5 mps 751 mmHg 54%
    11:00 +23°C° 0 mm 5 mps 750 mmHg 51%
    12:00 +25°C° 0 mm 5 mps 750 mmHg 48%
    13:00 +26°C° 0 mm 5 mps 749 mmHg 45%
    14:00 +26°C° 0 mm 4 mps 749 mmHg 45%
    15:00 +26°C° 0 mm 4 mps 749 mmHg 46%
    16:00 +26°C° 0 mm 4 mps 748 mmHg 46%
    17:00 +23°C° 0 mm 4 mps 749 mmHg 53%
    18:00 +22°C° 0 mm 3 mps 749 mmHg 60%
    19:00 +21°C° 0 mm 3 mps 749 mmHg 67%
    20:00 +19°C° 0 mm 3 mps 749 mmHg 70%
    21:00 +18°C° 0 mm 3 mps 749 mmHg 73%
    22:00 +17°C° 0 mm 3 mps 750 mmHg 77%
    23:00 +16°C° 0 mm 3 mps 750 mmHg 79%

    Day after tomorrow, 27 June, Wednesday

    Time Temperature Precipitation Wind Pressure Humidity
    00:00 +16°C° 0 mm 3 mps 749 mmHg 81%
    01:00 +15°C° 0 mm 2 mps 749 mmHg 83%
    02:00 +15°C° 0 mm 2 mps 749 mmHg 84%
    03:00 +14°C° 0 mm 2 mps 749 mmHg 85%
    04:00 +14°C° 0 mm 2 mps 749 mmHg 86%
    05:00 +14°C° 0 mm 3 mps 749 mmHg 81%
    06:00 +17°C° 0 mm 4 mps 749 mmHg 76%
    07:00 +19°C° 0 mm 5 mps 749 mmHg 70%
    08:00 +20°C° 0.1 mm 5 mps 748 mmHg 66%
    09:00 +21°C° 0.1 mm 5 mps 748 mmHg 61%
    10:00 +23°C° 0.1 mm 5 mps 748 mmHg 57%
    11:00 +23°C° 0.1 mm 5 mps 747 mmHg 53%
    12:00 +25°C° 0.1 mm 5 mps 747 mmHg 50%
    13:00 +26°C° 0.1 mm 6 mps 747 mmHg 47%
    14:00 +24°C° 0 mm 6 mps 747 mmHg 48%
    15:00 +24°C° 0 mm 6 mps 746 mmHg 49%
    16:00 +24°C° 0 mm 6 mps 746 mmHg 50%
    17:00 +22°C° 0 mm 5 mps 746 mmHg 55%
    18:00 +21°C° 0 mm 5 mps 746 mmHg 61%
    19:00 +20°C° 0 mm 4 mps 746 mmHg 66%
    20:00 +19°C° 0 mm 5 mps 746 mmHg 69%
    21:00 +17°C° 0 mm 5 mps 746 mmHg 71%
    22:00 +16°C° 0 mm 5 mps 746 mmHg 74%
    23:00 +15°C° 0 mm 5 mps 746 mmHg 76%

    28 June, Thursday

    Time Temperature Precipitation Wind Pressure Humidity
    00:00 +15°C° 0 mm 5 mps 746 mmHg 78%
    01:00 +14°C° 0 mm 5 mps 746 mmHg 80%
    02:00 +14°C° 0 mm 5 mps 745 mmHg 81%
    03:00 +14°C° 0 mm 5 mps 745 mmHg 82%
    04:00 +13°C° 0 mm 5 mps 744 mmHg 82%
    05:00 +14°C° 0 mm 5 mps 744 mmHg 79%
    06:00 +15°C° 0 mm 5 mps 743 mmHg 77%
    07:00 +16°C° 0 mm 6 mps 743 mmHg 74%
    08:00 +16°C° 0.4 mm 5 mps 742 mmHg 74%
    09:00 +17°C° 0.4 mm 5 mps 742 mmHg 74%
    10:00 +17°C° 0.4 mm 5 mps 741 mmHg 75%
    11:00 +17°C° 1.1 mm 5 mps 741 mmHg 78%
    12:00 +16°C° 1.1 mm 5 mps 741 mmHg 81%
    13:00 +16°C° 1.1 mm 5 mps 740 mmHg 84%
    14:00 +17°C° 1.5 mm 4 mps 740 mmHg 85%
    15:00 +17°C° 1.5 mm 4 mps 740 mmHg 86%
    16:00 +17°C° 1.5 mm 4 mps 740 mmHg 87%
    17:00 +16°C° 0.7 mm 3 mps 740 mmHg 87%
    18:00 +16°C° 0.7 mm 3 mps 741 mmHg 88%
    19:00 +16°C° 0.7 mm 2 mps 741 mmHg 89%
    20:00 +15°C° 0.4 mm 2 mps 741 mmHg 91%
    21:00 +15°C° 0.4 mm 1 mps 742 mmHg 92%
    22:00 +15°C° 0.4 mm 1 mps 742 mmHg 93%
    23:00 +15°C° 0.3 mm 1 mps 742 mmHg 93%

    29 June, Friday

    Time Temperature Precipitation Wind Pressure Humidity
    00:00 +15°C° 0.3 mm 1 mps 742 mmHg 94%
    01:00 +15°C° 0.3 mm 1 mps 742 mmHg 94%
    02:00 +15°C° 0.1 mm 1 mps 743 mmHg 95%
    03:00 +14°C° 0.1 mm 1 mps 743 mmHg 95%
    04:00 +14°C° 0.1 mm 1 mps 743 mmHg 95%
    05:00 +15°C° 0 mm 2 mps 743 mmHg 93%
    06:00 +16°C° 0 mm 2 mps 743 mmHg 91%
    07:00 +17°C° 0 mm 2 mps 743 mmHg 89%
    08:00 +18°C° 0.1 mm 2 mps 743 mmHg 83%
    09:00 +19°C° 0.1 mm 2 mps 743 mmHg 77%
    10:00 +20°C° 0.1 mm 2 mps 743 mmHg 71%
    11:00 +21°C° 0.2 mm 2 mps 743 mmHg 68%
    12:00 +23°C° 0.2 mm 1 mps 743 mmHg 65%
    13:00 +24°C° 0.2 mm 1 mps 743 mmHg 61%
    14:00 +24°C° 0.2 mm 1 mps 743 mmHg 61%
    15:00 +25°C° 0.2 mm 1 mps 742 mmHg 60%
    16:00 +25°C° 0.2 mm 1 mps 742 mmHg 59%
    17:00 +24°C° 0.1 mm 1 mps 742 mmHg 65%
    18:00 +23°C° 0.1 mm 1 mps 742 mmHg 70%
    19:00 +20°C° 0.1 mm 0 mps 742 mmHg 75%
    20:00 +21°C° 0 mm 1 mps 743 mmHg 78%
    21:00 +20°C° 0 mm 1 mps 743 mmHg 80%
    22:00 +19°C° 0 mm 1 mps 743 mmHg 82%
    23:00 +18°C° 0.2 mm 2 mps 743 mmHg 85%

    30 June, Saturday

    Time Temperature Precipitation Wind Pressure Humidity
    00:00 +18°C° 0.2 mm 2 mps 743 mmHg 88%
    01:00 +17°C° 0.2 mm 2 mps 743 mmHg 91%
    02:00 +17°C° 0.1 mm 2 mps 743 mmHg 92%
    03:00 +17°C° 0.1 mm 2 mps 743 mmHg 93%
    04:00 +17°C° 0.1 mm 2 mps 743 mmHg 93%
    05:00 +17°C° 0 mm 2 mps 743 mmHg 91%
    06:00 +18°C° 0 mm 2 mps 743 mmHg 89%
    07:00 +19°C° 0 mm 2 mps 743 mmHg 87%
    08:00 +20°C° 0 mm 2 mps 744 mmHg 81%
    09:00 +23°C° 0 mm 2 mps 744 mmHg 76%
    10:00 +24°C° 0 mm 3 mps 744 mmHg 71%
    11:00 +25°C° 0.5 mm 3 mps 744 mmHg 70%
    12:00 +26°C° 0.5 mm 3 mps 744 mmHg 70%
    13:00 +26°C° 0.5 mm 4 mps 744 mmHg 69%
    14:00 +26°C° 0.9 mm 4 mps 744 mmHg 73%
    15:00 +26°C° 0.9 mm 5 mps 744 mmHg 77%
    16:00 +24°C° 0.9 mm 6 mps 744 mmHg 80%
    17:00 +23°C° 0.2 mm 6 mps 745 mmHg 82%
    18:00 +22°C° 0.2 mm 6 mps 745 mmHg 84%
    19:00 +21°C° 0.2 mm 6 mps 746 mmHg 85%
    20:00 +21°C° 0 mm 6 mps 746 mmHg 83%
    21:00 +20°C° 0 mm 6 mps 747 mmHg 82%
    22:00 +20°C° 0 mm 6 mps 747 mmHg 80%
    23:00 +19°C° 0 mm 6 mps 748 mmHg 78%
    Show more